Simultaneous Nadir Overpasses (SNOs) Predictions

Prediction of SNOs between NOAA-19 and TERRA Satellite Orbit:

Table of predicted SNOs for the next 14.0 days since TLE Epoch: 7/19/2014
Index Date (NOAA-19) Time (NOAA-19) Lat,Lon (NOAA-19) SZA (NOAA-19 ) Date (TERRA) Time (TERRA) Lat,Lon (TERRA) SZA (TERRA ) Distance(km) Time Diff (sec)
1 07/19/2014 21:02:31 71.62,-135.51 50.80 07/19/2014 21:03:37 71.50,-132.93 50.67 91.76 66
2 07/19/2014 21:53:17 -70.68, 33.40 130.16 07/19/2014 21:53:20 -70.68, 33.41 130.16 0.39 3
3 07/19/2014 22:44:05 70.09,-158.40 49.27 07/19/2014 22:42:55 70.13,-159.75 49.30 51.37 70
4 07/22/2014 02:37:07 -70.72, -37.60 129.69 07/22/2014 02:37:33 -70.71, -37.60 129.71 0.95 26
5 07/22/2014 03:28:03 70.58, 129.89 50.17 07/22/2014 03:27:00 70.60, 129.88 50.19 2.82 63
6 07/24/2014 07:20:57 -70.77,-108.61 129.20 07/24/2014 07:21:46 -70.74,-108.61 129.23 3.21 49
7 07/24/2014 08:11:53 70.64, 58.85 50.69 07/24/2014 08:11:13 70.63, 58.86 50.67 2.22 40
8 07/26/2014 12:04:47 -70.82,-179.64 128.67 07/26/2014 12:05:58 -70.81,-179.56 128.68 3.13 71
9 07/26/2014 12:55:42 70.67, -12.11 51.19 07/26/2014 12:55:26 70.64, -12.17 51.16 3.32 16
10 07/28/2014 16:48:52 -71.65, 107.95 127.33 07/28/2014 16:49:58 -71.53, 110.53 127.45 91.54 66
11 07/28/2014 17:39:31 70.69, -83.08 51.71 07/28/2014 17:39:38 70.71, -83.13 51.73 2.41 7
12 07/28/2014 18:30:26 -70.13, 85.06 128.84 07/28/2014 18:29:15 -70.22, 83.79 128.76 48.72 71
13 07/30/2014 22:23:21 70.77,-154.15
